sat.trackr.live / text

‹ back to catalog

STARLINK-32264

NORAD 61642 · 2024-191X

PAYLOAD ACTIVE UNKNOWN

§ Identity

Operator
Country
US
Launch date
2024-10-23
Launch site
AFETR
Launch vehicle
Mass (kg)
RCS (m²)

Purposes: comms

External: N2YO · Heavens-Above · Gunter

§ Orbital elements

Epoch: 2026-09-21T00:00:02.000160Z

Period
91.22 min
Inclination
42.9847°
Eccentricity
0.0028065
Mean motion
15.78685713 rev/d
Perigee alt
315.3 km
Apogee alt
353.0 km
Semi-major
6,712.3 km
B*
9.2155e-4
RAAN
85.4103°
Arg perigee
286.2350°
Mean anomaly
358.5663°
Rev number
590

§ Raw data

STARLINK-322641 61642U 24191X   26264.00002315  .00173877  00000+0  92155-3 0  99942 61642  42.9847  85.4103 0028065 286.2350 358.5663 15.78685713  5904

JSON: /api/v1/satellites/61642 · /tle

For live sub-satellite position, see the globe view (requires WebGL).

§ Visibility from observer

Set your observer location to see the next 7 days of passes ≥ 10°. The values pass through the URL so the page stays shareable.

No JS? Fill the form by hand. The geolocation button needs JavaScript.